Tracking 17996 objects as of 28-February-2017
HD Live streaming from Space Station
objects crossing your sky now

COSMOS 1626

Track COSMOS 1626 now!
10-day predictions
COSMOS 1626 is classified as:


NORAD ID: 15494
Int'l Code: 1985-009A
Perigee: 503.7 km
Apogee: 509.3 km
Inclination: 82.5 °
Period: 94.6 minutes
Semi major axis: 6877 km
RCS: 7.281 m2 (large)
Launch date: January 24, 1985
Source: Commonwealth of Independent States (former USSR) (CIS)
Launch site: PLESETSK MISSILE AND SPACE COMPLEX (PKMTR)
Your satellite tracking list
Your tracking list is empty





NASA's NSSDC Master Catalog

Two Line Element Set (TLE):
1 15494U 85009A   17059.21947536  .00001505  00000-0  64240-4 0  9995
2 15494  82.4825 358.6623 0004093  77.9258  40.4286 15.22139549752202
Source of the keplerian elements: AFSPC